Regional Weather Roundup
Issued by NWS

Home | Current Version | Previous Version | Graphics & Text | Print | Product List | Glossary On
Versions: 1 2 3 4 5 6 7 8 9 10 11 12 13 14 15 16 17 18 19 20 21 22 23 24 25 26 27 28 29 30 31 32 33 34 35 36 37 38 39 40 41 42 43 44 45 46 47 48 49 50
000
ASUS43 KLSX 220707
RWRMO

WEATHER SUMMARY FOR MISSOURI
NATIONAL WEATHER SERVICE SPRINGFIELD MO
100 AM CST WED FEB 22 2017

NOTE: "FAIR" INDICATES FEW OR NO CLOUDS BELOW 12,000 FEET WITH NO
       SIGNIFICANT WEATHER AND/OR OBSTRUCTIONS TO VISIBILITY.
       CURRENT SKY AND/OR WEATHER CONDITIONS ARE NOT AVAILABLE FOR
       CHILLICOTHE AND FARMINGTON.

MOZ001>031-035>038-043-044-053-054-220800-
...NORTHERN AND WESTERN MISSOURI...

CITY           SKY/WX    TMP DP  RH WIND       PRES   REMARKS
KANSAS CTY INT CLEAR     45  35  68 S10       29.84F
KANSAS C DTWN  CLEAR     48  38  68 CALM      29.84F
LEE`S SUMMIT   CLEAR     53  46  77 S10       29.86F
ST JOSEPH      PTCLDY    42  37  82 S5        29.84S
CHILLICOTHE      N/A     43  38  82 S3        29.86F
KIRKSVILLE     CLEAR     55  53  93 SW9       29.86S

$$
MOZ066>068-077>081-088>096-101>105-220800-
...SOUTHWEST MISSOURI...

CITY           SKY/WX    TMP DP  RH WIND       PRES   REMARKS
SPRINGFIELD    FOG       51  51 100 SW6       29.92R VSB 1/4
JOPLIN         CLEAR     52  52 100 S6        29.91F

$$
MOZ032>034-039>042-045>050-055>058-069>072-220800-
...CENTRAL MISSOURI...

CITY           SKY/WX    TMP DP  RH WIND       PRES   REMARKS
COLUMBIA       FOG       51  51 100 SW5       29.89R VSB 1/4
JEFFERSON CITY FOG       49  49 100 NW3       29.89R VSB 1/4
ROLLA          FOG       53  53 100 S5        29.87S VSB 1/4
SEDALIA        CLEAR     56  54  93 SW9       29.89S
WHITEMAN AFB   CLEAR     50  50 100 S8        29.87S
WARRENSBURG    CLEAR     46  45  93 S5        29.88S
OSAGE BEACH    FOG       49  48  97 W3        29.91R VSB 1/4

$$
MOZ051-052-059>065-220800-
...EAST CENTRAL MISSOURI...

CITY           SKY/WX    TMP DP  RH WIND       PRES   REMARKS
ST LOUIS INTL  MOCLDY    58  53  84 S3        29.88S
SPIRIT OF STL  FOG       55  55 100 NW3       29.87S VSB 1/2
ST CHARLES     FOG       51  51 100 N3        29.88R VSB<1/4

$$
MOZ072>076-082>087-097>100-106>115-220800-
...SOUTH CENTRAL AND SOUTHEAST MISSOURI...

CITY           SKY/WX    TMP DP  RH WIND       PRES   REMARKS
CAPE GIRARDEAU CLOUDY    56  54  93 SE7       29.88F
FARMINGTON     CLOUDY    56  54  93 CALM      29.90S
POPLAR BLUFF   CLOUDY    58  58 100 N3        29.88R
WEST PLAINS    CLOUDY    55  54  96 CALM      29.92S FOG

$$



USA.gov is the U.S. government's official web portal to all federal, state and local government web resources and services.